82610 UUMU-USSS

Flight info

Callsign 82610
Flight time N/A
Altitude 35000
Route K0870F350 KOGOM L94 EKPIR M864 INKEB L94 NAMER T765 GEMKI L94 LOMBI
Aircraft T154/M-SDGIRWY/S

Departure

Time N/A
Airport Chkalovskiy Air Base (UUMU)

Arrival

Time 2026-04-28 18:56
Airport Koltsovo Airport (USSS)
Time Latitude Longitude Altitude Speed Heading
2026-04-28 18:12 56.07910 53.16652 34915 ft 477 kts 88°
2026-04-28 18:12 56.08039 53.22579 34918 ft 478 kts 88°
2026-04-28 18:12 56.08294 53.34579 34921 ft 479 kts 88°
2026-04-28 18:13 56.08540 53.46594 34916 ft 478 kts 88°
2026-04-28 18:13 56.08791 53.58617 34914 ft 477 kts 88°
2026-04-28 18:14 56.09020 53.70588 34909 ft 477 kts 88°
2026-04-28 18:14 56.09237 53.82578 34918 ft 477 kts 88°
2026-04-28 18:15 56.09441 53.94554 34916 ft 478 kts 88°
2026-04-28 18:15 56.09636 54.06533 34938 ft 477 kts 88°
2026-04-28 18:16 56.09816 54.18540 34971 ft 478 kts 88°
2026-04-28 18:16 56.09991 54.30533 35016 ft 478 kts 88°
2026-04-28 18:17 56.10496 54.42383 35083 ft 478 kts 79°
2026-04-28 18:17 56.11689 54.54252 35100 ft 478 kts 79°
2026-04-28 18:18 56.12740 54.65753 35096 ft 478 kts 81°
2026-04-28 18:18 56.13580 54.75500 35099 ft 478 kts 81°
2026-04-28 18:19 56.14747 54.89276 35094 ft 477 kts 81°
2026-04-28 18:19 56.15735 55.01084 35096 ft 479 kts 82°
2026-04-28 18:20 56.16716 55.12977 35081 ft 483 kts 82°
2026-04-28 18:20 56.17701 55.25032 35080 ft 485 kts 82°
2026-04-28 18:21 56.18675 55.37112 35067 ft 485 kts 82°
2026-04-28 18:21 56.19631 55.49124 35058 ft 484 kts 82°
2026-04-28 18:22 56.20575 55.61136 35045 ft 484 kts 82°
2026-04-28 18:22 56.21492 55.72950 35028 ft 485 kts 83°
2026-04-28 18:23 56.22422 55.85052 35021 ft 484 kts 83°
2026-04-28 18:23 56.23338 55.97128 35014 ft 485 kts 83°
2026-04-28 18:24 56.24086 56.07120 35021 ft 484 kts 83°
2026-04-28 18:24 56.25137 56.21341 35006 ft 484 kts 83°
2026-04-28 18:25 56.26014 56.33393 35000 ft 484 kts 83°
2026-04-28 18:26 56.27314 56.51553 34986 ft 484 kts 83°
2026-04-28 18:26 56.28166 56.63673 34979 ft 485 kts 83°
2026-04-28 18:27 56.29009 56.75785 34976 ft 485 kts 84°
2026-04-28 18:27 56.29837 56.87845 34965 ft 484 kts 84°
2026-04-28 18:28 56.30662 57.00035 34960 ft 487 kts 84°
2026-04-28 18:28 56.31468 57.12130 34952 ft 489 kts 85°
2026-04-28 18:29 56.32275 57.24407 34947 ft 488 kts 85°
2026-04-28 18:29 56.33061 57.36578 34945 ft 490 kts 85°
2026-04-28 18:30 56.33835 57.48724 34830 ft 481 kts 85°
2026-04-28 18:30 56.34580 57.60595 33841 ft 477 kts 85°
2026-04-28 18:30 56.34944 57.66483 33273 ft 476 kts 86°
2026-04-28 18:31 56.35307 57.72405 32620 ft 477 kts 86°
2026-04-28 18:31 56.35672 57.78402 31991 ft 477 kts 86°
2026-04-28 18:31 56.36033 57.84386 31399 ft 476 kts 86°
2026-04-28 18:31 56.36387 57.90296 30846 ft 474 kts 85°
2026-04-28 18:32 56.36739 57.96209 30387 ft 470 kts 85°
2026-04-28 18:32 56.37083 58.02041 29936 ft 466 kts 85°
2026-04-28 18:32 56.37421 58.07806 29488 ft 462 kts 85°
2026-04-28 18:32 56.37756 58.13580 29037 ft 458 kts 85°
2026-04-28 18:33 56.38088 58.19346 28589 ft 454 kts 85°
2026-04-28 18:33 56.38412 58.25033 28148 ft 450 kts 85°
2026-04-28 18:33 56.38731 58.30666 27713 ft 447 kts 85°
2026-04-28 18:33 56.39045 58.36254 27283 ft 443 kts 85°
2026-04-28 18:34 56.39357 58.41856 26821 ft 439 kts 85°
2026-04-28 18:34 56.39624 58.46686 26421 ft 437 kts 85°
2026-04-28 18:34 56.39925 58.52157 25975 ft 433 kts 85°
2026-04-28 18:34 56.40217 58.57522 25537 ft 430 kts 85°
2026-04-28 18:35 56.40504 58.62826 25107 ft 426 kts 85°
2026-04-28 18:35 56.40788 58.68136 24643 ft 423 kts 86°
2026-04-28 18:35 56.41045 58.72969 24170 ft 421 kts 86°
2026-04-28 18:35 56.41275 58.77352 23749 ft 419 kts 86°
2026-04-28 18:36 56.41533 58.82295 23279 ft 417 kts 86°
2026-04-28 18:36 56.41805 58.87519 22848 ft 413 kts 86°
2026-04-28 18:36 56.42071 58.92657 22528 ft 406 kts 86°
2026-04-28 18:36 56.42329 58.97694 22191 ft 401 kts 86°
2026-04-28 18:37 56.42584 59.02713 21842 ft 396 kts 86°
2026-04-28 18:37 56.42833 59.07674 21487 ft 391 kts 86°
2026-04-28 18:37 56.43078 59.12577 21130 ft 387 kts 86°
2026-04-28 18:37 56.43346 59.17410 20789 ft 383 kts 85°
2026-04-28 18:38 56.43633 59.22230 20437 ft 379 kts 85°
2026-04-28 18:38 56.43910 59.26908 20040 ft 378 kts 85°
2026-04-28 18:38 56.44186 59.31665 19617 ft 376 kts 85°
2026-04-28 18:38 56.44455 59.36387 19205 ft 374 kts 85°
2026-04-28 18:39 56.44717 59.41019 18807 ft 372 kts 85°
2026-04-28 18:39 56.44977 59.45658 18414 ft 369 kts 85°
2026-04-28 18:39 56.45234 59.50275 18026 ft 367 kts 85°
2026-04-28 18:39 56.45507 59.54883 17642 ft 364 kts 82°
2026-04-28 18:40 56.45997 59.59371 17277 ft 362 kts 78°
2026-04-28 18:40 56.46576 59.63829 16897 ft 359 kts 78°
2026-04-28 18:40 56.47122 59.68134 16480 ft 358 kts 78°
2026-04-28 18:40 56.47681 59.72546 16016 ft 357 kts 78°
2026-04-28 18:41 56.48239 59.76976 15508 ft 358 kts 78°
2026-04-28 18:41 56.48792 59.81381 15005 ft 359 kts 78°
2026-04-28 18:41 56.49349 59.85850 14514 ft 358 kts 78°
2026-04-28 18:41 56.49895 59.90239 14044 ft 357 kts 78°
2026-04-28 18:42 56.50438 59.94616 13583 ft 355 kts 78°
2026-04-28 18:42 56.50975 59.98963 13155 ft 353 kts 78°
2026-04-28 18:42 56.51513 60.03334 12756 ft 349 kts 78°
2026-04-28 18:42 56.52039 60.07615 12425 ft 343 kts 78°
2026-04-28 18:43 56.52549 60.11773 12206 ft 334 kts 78°
2026-04-28 18:43 56.53041 60.15806 11847 ft 322 kts 78°
2026-04-28 18:43 56.53512 60.19676 11452 ft 308 kts 78°
2026-04-28 18:43 56.53966 60.23416 11126 ft 296 kts 78°
2026-04-28 18:44 56.54403 60.27031 10908 ft 291 kts 78°
2026-04-28 18:44 56.55259 60.34133 10425 ft 284 kts 78°
2026-04-28 18:44 56.55680 60.37640 10172 ft 281 kts 78°
2026-04-28 18:45 56.56094 60.41095 9927 ft 282 kts 78°
2026-04-28 18:45 56.56514 60.44610 9677 ft 284 kts 78°
2026-04-28 18:45 56.56933 60.48130 9379 ft 286 kts 78°
2026-04-28 18:45 56.57352 60.51656 9074 ft 287 kts 78°
2026-04-28 18:46 56.57771 60.55194 8783 ft 286 kts 78°
2026-04-28 18:46 56.58191 60.58740 8496 ft 284 kts 78°
2026-04-28 18:46 56.58607 60.62266 8104 ft 286 kts 78°
2026-04-28 18:46 56.59024 60.65815 7629 ft 291 kts 79°
2026-04-28 18:47 56.59446 60.69424 7120 ft 295 kts 79°
2026-04-28 18:47 56.59870 60.73053 6684 ft 286 kts 79°
2026-04-28 18:47 56.60273 60.76504 6305 ft 273 kts 79°
2026-04-28 18:47 56.60659 60.79822 5926 ft 263 kts 79°
2026-04-28 18:48 56.61034 60.83051 5519 ft 255 kts 79°
2026-04-28 18:48 56.61395 60.86174 5099 ft 250 kts 79°
2026-04-28 18:48 56.61751 60.89252 4836 ft 246 kts 79°
2026-04-28 18:48 56.62097 60.92252 4640 ft 242 kts 79°
2026-04-28 18:49 56.62442 60.95257 4383 ft 239 kts 79°
2026-04-28 18:49 56.62553 60.96227 4284 ft 237 kts 79°
2026-04-28 18:49 56.63110 61.01082 3721 ft 232 kts 79°
2026-04-28 18:49 56.63436 61.03936 3422 ft 228 kts 78°
2026-04-28 18:50 56.63755 61.06732 3280 ft 222 kts 78°
2026-04-28 18:50 56.64116 61.09435 3093 ft 221 kts 67°
2026-04-28 18:50 56.64984 61.11539 3023 ft 202 kts 33°
2026-04-28 18:50 56.66199 61.12389 2954 ft 181 kts
2026-04-28 18:51 56.67422 61.12243 2797 ft 169 kts 349°
2026-04-28 18:51 56.68558 61.11976 2768 ft 162 kts 349°
2026-04-28 18:51 56.69671 61.11705 2752 ft 163 kts 348°
2026-04-28 18:51 56.70829 61.11374 2785 ft 169 kts 347°
2026-04-28 18:52 56.71892 61.10608 2755 ft 159 kts 319°
2026-04-28 18:52 56.72574 61.09179 2750 ft 143 kts 298°
2026-04-28 18:52 56.72916 61.07526 2690 ft 134 kts 279°
2026-04-28 18:52 56.73083 61.05763 2691 ft 149 kts 274°
2026-04-28 18:53 56.73164 61.03934 2678 ft 140 kts 272°
2026-04-28 18:53 56.73227 61.02163 2657 ft 142 kts 272°
2026-04-28 18:53 56.73302 61.00378 2672 ft 138 kts 273°
2026-04-28 18:53 56.73376 60.98637 2557 ft 137 kts 272°
2026-04-28 18:54 56.73444 60.96890 2367 ft 139 kts 273°
2026-04-28 18:54 56.73522 60.95106 2173 ft 140 kts 272°
2026-04-28 18:54 56.73598 60.93347 1995 ft 141 kts 272°
2026-04-28 18:54 56.73673 60.91530 1801 ft 145 kts 273°
2026-04-28 18:55 56.73746 60.89690 1592 ft 145 kts 272°
2026-04-28 18:55 56.73777 60.88833 1520 ft 143 kts 272°
2026-04-28 18:55 56.73884 60.86411 1255 ft 143 kts 273°
2026-04-28 18:55 56.73957 60.84570 1057 ft 145 kts 273°
2026-04-28 18:56 56.74038 60.82751 859 ft 144 kts 273°
2026-04-28 18:56 56.74113 60.80954 781 ft 132 kts 273°
2026-04-28 18:56 56.74156 60.79779 781 ft 48 kts 273°
2026-04-28 18:56 56.74169 60.79429 780 ft 20 kts 274°
2026-04-28 18:57 56.74176 60.79282 780 ft 3 kts 274°
2026-04-28 18:57 56.74179 60.79203 780 ft 8 kts 275°
2026-04-28 18:57 56.74209 60.79103 780 ft 10 kts 345°
2026-04-28 18:57 56.74295 60.79112 781 ft 13 kts 12°
2026-04-28 18:58 56.74395 60.79147 780 ft 15 kts
2026-04-28 18:58 56.74508 60.79182 781 ft 17 kts
2026-04-28 18:58 56.74607 60.79187 781 ft 11 kts
2026-04-28 18:58 56.74659 60.79282 780 ft 13 kts 84°
2026-04-28 18:59 56.74661 60.79480 780 ft 17 kts 90°
2026-04-28 18:59 56.74660 60.79710 780 ft 19 kts 90°
2026-04-28 18:59 56.74660 60.79961 780 ft 20 kts 90°
2026-04-28 18:59 56.74660 60.80223 780 ft 21 kts 90°
2026-04-28 19:00 56.74659 60.80499 780 ft 22 kts 90°
2026-04-28 19:00 56.74660 60.80789 780 ft 23 kts 90°
2026-04-28 19:00 56.74660 60.81089 780 ft 24 kts 90°
2026-04-28 19:00 56.74659 60.81399 780 ft 25 kts 90°
2026-04-28 19:01 56.74659 60.81694 780 ft 23 kts 90°
2026-04-28 19:01 56.74659 60.81917 780 ft 14 kts 90°
2026-04-28 19:01 56.74659 60.82108 780 ft 15 kts 88°
2026-04-28 19:01 56.74725 60.82200 780 ft 10 kts 359°
2026-04-28 19:02 56.74771 60.82288 780 ft 11 kts 72°
2026-04-28 19:02 56.74817 60.82409 780 ft 10 kts 46°
2026-04-28 19:02 56.74823 60.82515 780 ft 10 kts 137°
2026-04-28 19:02 56.74783 60.82622 780 ft 10 kts 77°
2026-04-28 19:03 56.74824 60.82695 780 ft 7 kts 359°
2026-04-28 19:03 56.74855 60.82663 780 ft 2 kts 317°
2026-04-28 19:03 56.74860 60.82655 780 ft 0 kts 316°